International Virtual Aviation Organisation

Russian Federation and Kazakhstan MCD

 

Карточка аэропорта UUDL

Внимание!
Информация на этой странице в стадии наполнения.
Если вы не увидели какой-то информации, или заметили неточность - пожалуйста сообщите нам!
Спасибо!
Команда RU-STAFF
Название аэропортаТуношна
Название аэропорта (англ.)Tunoshna
Превышение305 ft. (93 m.)
Координаты57°33.636', 40°9.438'
Высота перехода700 m
Эшелон переходаFL050
Коды ответчика2750-2757
Зона ОрВДМосква РПИ (UUWV)
Данные METARUUDL 271700Z 11004MPS 5000 -SNRA OVC007 00/M01 Q1013 R23/550338 NOSIG RMK QFE751
Проноз погоды (TAF)UUDL 271355Z 2715/2815 10003G08MPS 6000 -SN OVC006 TXM00/2715Z TNM01/2815Z TEMPO 2715/2806 2000 SN BR OVC003 PROB40 TEMPO 2715/2806 -FZDZ
NOTAMshow/hide NOTAM
AWOS   TABLE

Информация о ВПП

ВПП Длина ВПП (м.) Покрытие Курс ВПП Частота ILS
053010Асфальтобетон51 
233010Асфальтобетон231110.5

Диспетчерские позиции




Спутниковое изображение